[[{"header":{"parameterUnit":"m.s-1","parameterCategory":1,"la1":30.2991,"la2":30.254,"lo1":-89.0895,"lo2":-89.0444,"dy":0.0017,"dx":0.0017,"nx":28,"ny":28,"refTime":"2025-02-25T03:00:00:Z","depth":0,"parameterNumber":2,"parameterNumberName":"U-component_of_WINDS"},"data":[0,0,0,0,0,0,0,0,0,0,0,0,0,0,0,0,0,0,0,0,0,0,0,0,0,0,0,0,0,0,0,0,0,0,0,0,0,0,0,0,0,0,0,0,0,0,0,0,0,0,0,0,0,0,0,0,0,0,-0.3913,-0.3912,0,-0.3836,-0.3835,-0.3834,-0.3783,-0.3782,-0.3782,-0.3782,-0.37,-0.3698,-0.3696,0,0,0,0,0,0,0,0,0,0,0,0,0,-0.4015,-0.4013,-0.3913,-0.3912,-0.3911,-0.3836,-0.3835,-0.3834,-0.3783,-0.3782,-0.3782,-0.3782,-0.3701,-0.3699,-0.3696,0,0,0,0,0,0,0,0,0,0,0,0,0,-0.3957,-0.4013,-0.3913,-0.3877,-0.3873,-0.3836,-0.3835,-0.3833,-0.3783,-0.3782,-0.3782,-0.3781,-0.3701,-0.3699,-0.3696,-0.3689,0,0,-0.3687,-0.3686,0,0,0,0,0,0,0,0,-0.3961,-0.3954,-0.3883,-0.3879,-0.3875,-0.3818,-0.3841,-0.3785,-0.3783,-0.3817,-0.3782,-0.3781,-0.374,-0.3734,-0.372,-0.3685,-0.3682,-0.3687,-0.3686,-0.3684,-0.3684,0,0,0,0,0,0,0,-0.3965,-0.3957,-0.3882,-0.3882,-0.3877,-0.3864,-0.3855,-0.383,-0.3782,-0.3814,-0.381,-0.3802,-0.3737,-0.3723,-0.3718,-0.368,-0.3687,-0.3685,-0.3683,-0.3682,-0.3636,-0.3636,0,0,0,0,0,0,-0.3975,-0.396,-0.3885,-0.388,-0.3917,-0.3862,-0.3852,-0.3837,-0.3782,-0.3773,-0.3802,-0.38,-0.3728,-0.3721,-0.3715,-0.3703,-0.3684,-0.3682,-0.368,-0.3635,-0.3636,-0.3636,0,0,0,0,0,0,-0.3977,-0.3969,-0.3888,-0.3919,-0.3908,-0.3861,-0.3844,-0.3836,-0.3821,-0.3773,-0.3764,-0.3797,-0.3727,-0.3719,-0.3696,-0.3699,-0.368,-0.3678,-0.3635,-0.3635,-0.3636,-0.3678,0,0,0,0,0,0,-0.398,-0.397,-0.3967,-0.392,-0.3906,-0.3871,-0.3844,-0.3834,-0.3817,-0.3813,-0.3766,-0.3757,-0.3726,-0.37,-0.3693,-0.3695,-0.3676,-0.3634,-0.3635,-0.3636,-0.3676,-0.368,-0.3684,0,0,0,0,0,-0.3984,-0.3981,-0.3967,-0.3958,-0.3902,-0.3871,-0.3863,-0.3829,-0.3817,-0.3814,-0.3783,-0.3759,-0.37,-0.3698,-0.369,-0.3691,-0.3634,-0.3635,-0.3636,-0.3675,-0.368,-0.3684,0,0,0,0,0,0,-0.4029,-0.3974,-0.3958,-0.394,-0.3911,-0.3863,-0.3857,-0.3835,-0.3807,-0.3805,-0.3762,-0.3752,-0.3733,-0.371,-0.3709,-0.3681,-0.3664,-0.3663,-0.3697,-0.3701,-0.3705,-0.371,-0.3673,0,0,0,0,0,-0.4037,-0.4017,-0.397,-0.3959,-0.3945,-0.3904,-0.3889,-0.3865,-0.3833,-0.382,-0.3787,-0.3756,-0.3731,-0.3715,-0.3689,-0.3674,-0.3662,-0.367,-0.3674,-0.3677,-0.3676,-0.3666,-0.3669,-0.3639,-0.3639,-0.3639,0,0,-0.4053,-0.4021,-0.401,-0.3967,-0.3942,-0.3921,-0.3894,-0.3873,-0.3858,-0.3816,-0.3793,-0.3768,-0.3731,-0.3712,-0.3702,-0.3692,-0.3683,-0.3678,-0.3681,-0.3679,-0.3668,-0.3671,-0.3673,-0.364,-0.364,-0.364,0,0,-0.4071,-0.4045,-0.4033,-0.4008,-0.3971,-0.3943,-0.3941,-0.3896,-0.3878,-0.3854,-0.3823,-0.3804,-0.3761,-0.3736,-0.3717,-0.3728,-0.3704,-0.3721,-0.3739,-0.373,-0.3732,-0.3734,-0.3737,-0.3739,-0.372,-0.3721,-0.3721,0,-0.4095,-0.4064,-0.4029,-0.4011,-0.3992,-0.3956,-0.3942,-0.392,-0.3875,-0.3863,-0.3853,-0.3799,-0.3772,-0.3746,-0.3749,-0.3735,-0.373,-0.3725,-0.3735,-0.3736,-0.3738,-0.374,-0.3742,-0.3723,-0.3722,-0.3722,-0.3722,0,-0.4096,-0.4075,-0.4069,-0.4028,-0.4009,-0.3994,-0.3956,-0.3941,-0.3919,-0.3893,-0.3869,-0.3835,-0.3801,-0.3794,-0.3771,-0.3765,-0.376,-0.3743,-0.3725,-0.3743,-0.3745,-0.3746,-0.3726,-0.3725,-0.3724,-0.3724,0,0,-0.4138,-0.4079,-0.4077,-0.4059,-0.4015,-0.3998,-0.3981,-0.3949,-0.3937,-0.3908,-0.3892,-0.3858,-0.3842,-0.3821,-0.3796,-0.3788,-0.3798,-0.3772,-0.3771,-0.3778,-0.3789,-0.3801,-0.3803,-0.3783,-0.3783,-0.3783,-0.3792,0,-0.4149,-0.4117,-0.4085,-0.4064,-0.4044,-0.401,-0.3995,-0.3966,-0.3942,-0.3921,-0.3893,-0.3869,-0.3851,-0.3838,-0.3829,-0.3799,-0.38,-0.3798,-0.3767,-0.3767,-0.3776,-0.3803,-0.3816,-0.3825,-0.3792,-0.3792,-0.3792,0,-0.4157,-0.4131,-0.4108,-0.4067,-0.4057,-0.4044,-0.4013,-0.3994,-0.3961,-0.3944,-0.3921,-0.3895,-0.3875,-0.3861,-0.3832,-0.3832,-0.3818,-0.3801,-0.3801,-0.3795,-0.378,-0.3798,-0.3827,-0.3828,-0.3793,-0.3793,-0.3793,0,-0.419,-0.4149,-0.4129,-0.4115,-0.4066,-0.4058,-0.4037,-0.4004,-0.3987,-0.396,-0.3948,-0.3919,-0.3903,-0.388,-0.3847,-0.3839,-0.3822,-0.3804,-0.3806,-0.3807,-0.3803,-0.3803,-0.3829,-0.3796,-0.3796,-0.3796,-0.3796,0,-0.4205,-0.4192,-0.4144,-0.4132,-0.4116,-0.408,-0.4066,-0.4042,-0.4013,-0.3996,-0.3965,-0.3949,-0.3906,-0.3886,-0.386,-0.384,-0.3833,-0.3818,-0.3811,-0.382,-0.3822,-0.3809,-0.3807,-0.3796,-0.3796,-0.3796,-0.3796,0,-0.4238,-0.4205,-0.4182,-0.4139,-0.4127,-0.4118,-0.4081,-0.4068,-0.4042,-0.4021,-0.4014,-0.3973,-0.3947,-0.3912,-0.3875,-0.3858,-0.3841,-0.3831,-0.3852,-0.3848,-0.3851,-0.3851,-0.3869,-0.3869,-0.3837,-0.3838,-0.3838,0,-0.4248,-0.4238,-0.4194,-0.4181,-0.4161,-0.414,-0.4123,-0.4088,-0.4071,-0.4033,-0.4025,-0.3997,-0.3972,-0.3933,-0.39,-0.3871,-0.3859,-0.3868,-0.3855,-0.3864,-0.3858,-0.3859,-0.3857,-0.387,-0.3871,-0.3871,-0.3872,0,-0.4271,-0.4256,-0.4233,-0.4205,-0.4185,-0.4161,-0.4135,-0.4126,-0.4085,-0.4068,-0.4042,-0.4023,-0.3986,-0.3958,-0.3926,-0.3904,-0.3881,-0.3876,-0.3875,-0.3883,-0.3896,-0.3889,-0.386,-0.3876,-0.3875,-0.3875,-0.3875,-0.3874,-0.4293,-0.4282,-0.4249,-0.4225,-0.4202,-0.4179,-0.4165,-0.4138,-0.4116,-0.4083,-0.4064,-0.4038,-0.4006,-0.396,-0.394,-0.3919,-0.391,-0.3908,-0.3908,-0.3907,-0.391,-0.3901,-0.3913,-0.3913,-0.3913,-0.3913,-0.3913,0,-0.4313,-0.4291,-0.4269,-0.4235,-0.4215,-0.4197,-0.4168,-0.4153,-0.4131,-0.4103,-0.408,-0.405,-0.4023,-0.3989,-0.396,-0.395,-0.3939,-0.3943,-0.3943,-0.3938,-0.392,-0.3924,-0.3953,-0.3953,-0.3953,-0.3953,-0.3953,-0.3953,-0.4321,-0.4302,-0.4283,-0.4252,-0.423,-0.4205,-0.419,-0.4168,-0.4146,-0.4114,-0.4092,-0.4071,-0.404,-0.4009,-0.3984,-0.3974,-0.3964,-0.3972,-0.396,-0.3943,-0.394,-0.3936,-0.3939,-0.3971,-0.3971,-0.3979,-0.3979,-0.3979]},{"header":{"parameterUnit":"m.s-1","parameterCategory":1,"la1":30.2991,"la2":30.254,"lo1":-89.0895,"lo2":-89.0444,"dy":0.0017,"dx":0.0017,"nx":28,"ny":28,"refTime":"2025-02-25T03:00:00:Z","depth":0,"parameterNumber":3,"parameterNumberName":"V-component_of_WINDS"},"data":[0,0,0,0,0,0,0,0,0,0,0,0,0,0,0,0,0,0,0,0,0,0,0,0,0,0,0,0,0,0,0,0,0,0,0,0,0,0,0,0,0,0,0,0,0,0,0,0,0,0,0,0,0,0,0,0,0,0,1.8491,1.8491,0,1.847,1.847,1.847,1.852,1.8521,1.8523,1.8525,1.85,1.8497,1.8495,0,0,0,0,0,0,0,0,0,0,0,0,0,1.8572,1.857,1.8491,1.8491,1.849,1.847,1.847,1.847,1.852,1.8522,1.8523,1.8525,1.85,1.8498,1.8495,0,0,0,0,0,0,0,0,0,0,0,0,0,1.8542,1.8569,1.8491,1.8513,1.8515,1.847,1.847,1.8469,1.8519,1.8522,1.8524,1.8526,1.8501,1.8498,1.8495,1.8427,0,0,1.8485,1.8483,0,0,0,0,0,0,0,0,1.8544,1.8539,1.851,1.8511,1.8513,1.85,1.8489,1.8455,1.8519,1.8517,1.8525,1.8527,1.8498,1.8495,1.8485,1.8425,1.8424,1.8485,1.8483,1.8481,1.848,0,0,0,0,0,0,0,1.8546,1.854,1.8483,1.851,1.8512,1.8523,1.8522,1.8483,1.8494,1.8518,1.8521,1.8518,1.8499,1.8488,1.8485,1.8424,1.8485,1.8482,1.848,1.8479,1.8308,1.8305,0,0,0,0,0,0,1.8545,1.8542,1.8483,1.8482,1.8535,1.852,1.8518,1.8502,1.8495,1.8496,1.8516,1.8521,1.8493,1.8489,1.8485,1.8405,1.8481,1.8478,1.8476,1.831,1.8307,1.8304,0,0,0,0,0,0,1.8547,1.854,1.8484,1.8513,1.8507,1.8516,1.8497,1.85,1.849,1.8494,1.8496,1.8504,1.8495,1.8489,1.8441,1.8405,1.8477,1.8474,1.8313,1.8309,1.8306,1.8245,0,0,0,0,0,0,1.8549,1.854,1.8515,1.8512,1.8505,1.8442,1.8495,1.8498,1.8485,1.849,1.8482,1.8483,1.8496,1.8446,1.8438,1.8402,1.8471,1.8317,1.8312,1.8307,1.825,1.8239,1.823,0,0,0,0,0,1.8552,1.8497,1.8513,1.8506,1.8474,1.844,1.8435,1.8452,1.8481,1.8456,1.8458,1.8484,1.841,1.844,1.8432,1.8394,1.8319,1.8313,1.8307,1.8254,1.8241,1.823,0,0,0,0,0,0,1.8494,1.8497,1.8515,1.8458,1.8448,1.8448,1.8416,1.8437,1.8418,1.8424,1.8444,1.8442,1.839,1.8387,1.8421,1.8328,1.8369,1.8362,1.8332,1.8319,1.831,1.8311,1.8469,0,0,0,0,0,1.8475,1.8448,1.8452,1.8401,1.8396,1.8407,1.8392,1.8406,1.8396,1.8392,1.8391,1.838,1.8354,1.8337,1.8313,1.825,1.8249,1.822,1.821,1.8201,1.8194,1.8161,1.8148,1.8285,1.8285,1.8285,0,0,1.8435,1.8433,1.8415,1.839,1.8384,1.8355,1.8403,1.837,1.8348,1.8387,1.8342,1.8341,1.8329,1.8273,1.8249,1.8269,1.8156,1.8194,1.8187,1.8185,1.8154,1.8141,1.8129,1.8281,1.8282,1.8283,0,0,1.8347,1.8343,1.8301,1.8295,1.8286,1.8293,1.8283,1.828,1.8281,1.8237,1.8265,1.8239,1.8194,1.8185,1.8175,1.8084,1.8107,1.8076,1.8024,1.7991,1.798,1.7971,1.7939,1.7927,1.8069,1.8069,1.8069,0,1.8298,1.8256,1.8277,1.8242,1.823,1.8265,1.8223,1.8215,1.8198,1.8188,1.8212,1.8158,1.8152,1.8095,1.8073,1.8063,1.8052,1.8077,1.798,1.7971,1.7962,1.7932,1.792,1.8065,1.8066,1.8066,1.8066,0,1.8197,1.8167,1.8134,1.8119,1.8103,1.8064,1.8078,1.806,1.8075,1.808,1.8034,1.8029,1.8006,1.7993,1.8007,1.7938,1.7951,1.7977,1.8019,1.7945,1.7917,1.7906,1.806,1.8061,1.8062,1.8063,0,0,1.8072,1.8069,1.8056,1.805,1.8043,1.802,1.7983,1.7961,1.7945,1.7932,1.7901,1.7863,1.7887,1.7875,1.7889,1.786,1.7789,1.789,1.789,1.7871,1.7713,1.7693,1.768,1.7804,1.7802,1.78,1.7714,0,1.7985,1.7923,1.7941,1.7878,1.7851,1.7884,1.7852,1.7843,1.7847,1.7824,1.7828,1.7801,1.7835,1.7828,1.7801,1.7803,1.7757,1.781,1.7775,1.7773,1.7777,1.7665,1.7644,1.7563,1.7703,1.7701,1.77,0,1.7876,1.7861,1.7796,1.7794,1.7783,1.7754,1.7736,1.7714,1.7705,1.771,1.7697,1.7716,1.7678,1.7721,1.7669,1.7705,1.7691,1.769,1.7688,1.7685,1.7732,1.7659,1.7537,1.7525,1.7683,1.7684,1.7685,0,1.7792,1.7755,1.7711,1.7705,1.7701,1.768,1.7677,1.7671,1.7657,1.7641,1.7632,1.7611,1.7599,1.7582,1.7595,1.7625,1.7542,1.7585,1.7544,1.7544,1.7525,1.7526,1.7399,1.7516,1.7516,1.7517,1.7517,0,1.7694,1.7653,1.7674,1.7647,1.7602,1.7622,1.7576,1.7577,1.7571,1.7545,1.7572,1.7546,1.7565,1.754,1.755,1.7506,1.75,1.7503,1.7506,1.75,1.75,1.7492,1.7498,1.7513,1.7514,1.7515,1.7515,0,1.7592,1.7605,1.7559,1.756,1.756,1.7526,1.7527,1.7502,1.7508,1.7474,1.7467,1.7476,1.7449,1.746,1.743,1.7437,1.7381,1.7391,1.7384,1.7387,1.7346,1.735,1.7209,1.7192,1.732,1.7319,1.7318,0,1.7529,1.7498,1.7496,1.7481,1.7477,1.7452,1.7439,1.7457,1.7442,1.743,1.7406,1.7381,1.7363,1.7317,1.7321,1.7298,1.7308,1.7261,1.7305,1.7301,1.7308,1.731,1.7307,1.7252,1.725,1.7249,1.7248,0,1.7415,1.7423,1.7403,1.7385,1.7369,1.7355,1.7344,1.733,1.7348,1.7329,1.7302,1.7288,1.7259,1.7234,1.7214,1.7211,1.7232,1.7234,1.7224,1.7218,1.7215,1.7217,1.736,1.7237,1.7239,1.7239,1.724,1.724,1.7331,1.7306,1.7301,1.7278,1.7272,1.7261,1.7237,1.7241,1.722,1.7198,1.721,1.7179,1.7171,1.7147,1.7141,1.7116,1.7134,1.7119,1.7115,1.7111,1.7106,1.7219,1.7112,1.7113,1.7113,1.7113,1.7113,0,1.7219,1.7218,1.7197,1.7181,1.7163,1.7186,1.7175,1.7158,1.713,1.7122,1.7103,1.7072,1.7048,1.705,1.7028,1.7008,1.7017,1.7002,1.7003,1.7002,1.709,1.7102,1.6994,1.6994,1.6995,1.6995,1.6995,1.6995,1.7159,1.7118,1.7125,1.7081,1.7079,1.705,1.7042,1.7031,1.7025,1.699,1.6971,1.6973,1.6968,1.6946,1.6925,1.6926,1.6917,1.6897,1.6902,1.6984,1.6996,1.7007,1.7018,1.6895,1.6895,1.6816,1.6815,1.6814]}]]